Location: Barcelona
(41.3830°N, 2.1830°E)
Time: 06:39:09
(UTC+01:00)

ISS - Pass Details

Date: 23 November 2020
Orbit: 418 x 420 km, 51.6° (Epoch: 04 December)

Event Time Altitude Azimuth Distance (km) Brightness Sun altitude
Rises 18:52:28 0° 254° (WSW) 2,354 1.9 -16.1°
Reaches altitude 10° 18:54:40 10° 263° (W) 1,493 0.4 -16.5°
Maximum altitude 18:57:49 37° 333° (NNW) 670 -2.7 -17.0°
Enters shadow 18:58:56 28° 16° (NNE) 826 -2.5 -17.2°
